Погода в Уайт-Рок

Канада     49°01′55″N   122°48′03″W
темп.,
°C
ветер,
м/с
пор.,
м/с
влажн.,
%
обл.,
%
осадки,
мм/ч
давл.,
гПа
погр.,
м
13 апреля, вт
вт1323:00+5св37620 0.0 1028113
02:00+4всв38650 0.0 1028141
05:00+3с13680 0.0 102989
08:00+5св25580 0.0 1029161
11:00+12зсз13410 0.0 1029703
14:00+13з44460 0.0 1028778
17:00+13зсз45420 0.0 1026414
20:00+8сз22593 0.0 102533
14 апреля, ср
ср1423:00+6св22715 0.0 102518
02:00+5св11764 0.0 102519
05:00+4в11760 0.0 102528
08:00+6св12640 0.0 102487
11:00+12з22490 0.0 1023451
14:00+14зюз32490 0.0 1021569
17:00+14з34475 0.0 1019321
20:00+9зюз11710 0.0 101813
15 апреля, чт
чт1523:00+7в11763 0.0 101912
02:00+6в22811 0.0 101914
05:00+6всв11835 0.0 101920
08:00+8св11690 0.0 102069
11:00+14з21510 0.0 1020430
14:00+16зюз32530 0.0 1019493
17:00+15з22520 0.0 1018240
20:00+10зсз11680 0.0 101813
16 апреля, пт
пт1623:00+9в11670 0.0 101910
02:00+8в11790 0.0 102110
05:00+8всв11910 0.0 102211
08:00+10св12810 0.0 102278
11:00+17з11560 0.0 1022428
14:00+17з32540 0.0 1022475
17:00+17з23544 0.0 1021259
20:00+12зсз12710 0.0 102112
17 апреля, сб
сб1723:00+10ссв01760 0.0 102110
02:00+10всв11840 0.0 102211
05:00+9св11910 0.0 102210
08:00+12св12790 0.0 102268
11:00+18з21560 0.0 1022376
14:00+18з22560 0.0 1022411
17:00+18з22530 0.0 1021231
20:00+12з22745 0.0 102111